UKAWC Weather Map Carousel5
Last update: Wed Nov 14 04:42:14 EST 2018
[US Rad], [IR Sat], [VIS], [WW], [NatRad], [Temps], [LSI], [Wind], [QPF], [5-day], [WCI], [DewP], [Sfc loop], [Sfc/Rad], [Today], [Tom.], [NextDay], [12Hr], [24Hr], [36Hr], [36Hr], [48Hr], [60Hr], [7-day Threats] [Day 8-14 Threats] [850mb], [500mb], [Thick], ALL , wxcarousel , [Slow version] [Fast version]
Webcasts: County NWS Hazardous Weather, Hourly Ag Weather Conditions, Kentucky Ag Weather Synopsis, w/Maps, Kentucky Weekly Climate Report, w/Maps, Kentucky Weather & Crop Report,

400 AM EST WED NOV 14 2018
WESTERN AND SOUTH CENTRAL KENTUCKY
  
CITY           SKY/WX    TMP DP  RH WIND       PRES   REMARKS
PADUCAH        FAIR      24  18  77 N9        30.48S WCI  14          
HENDERSON      FAIR      24  19  81 NE10      30.51R WCI  14          
OWENSBORO      FAIR      24  19  81 NE7       30.50R WCI  16          
HOPKINSVILLE   CLOUDY    26  20  78 N13       30.45R WCI  15          
BOWLING GREEN  FAIR      30  23  75 N3        30.46R                  
GLASGOW        FAIR      31  27  83 NE8       30.43R WCI  24          

400 AM EST WED NOV 14 2018
...CENTRAL KENTUCKY...
  
CITY           SKY/WX    TMP DP  RH WIND       PRES   REMARKS
MT STERLING*     N/A     30  27  86 NE5       30.46S WCI  25          
FLEMING/MASON*   N/A     28  23  82 NE7       30.48S WCI  20          
DANVILLE*        N/A     30  27  86 NE7       30.44R WCI  23          
LEXINGTON        N/A     29  23  78 NE10      30.45F WCI  20          
FRANKFORT        N/A     29  22  75 NE8       30.46R WCI  21          
LOUISVILLE     CLOUDY    27  19  72 N8        30.49S WCI  19          
LEBANON*         N/A     28  27  93 NE5       30.45R WCI  23          
GLASGOW*         N/A     31  27  83 NE8       30.43R WCI  24          
BOWLING GREEN    N/A     30  23  75 N3        30.46R                  


400 AM EST WED NOV 14 2018
...SOUTHERN OHIO/WEST VIRGINIA...
  
CITY           SKY/WX    TMP DP  RH WIND       PRES   REMARKS
COVINGTON      MOCLDY    24  20  84 N7        30.47R WCI  16          
COLUMBUS       MOCLDY    25  17  72 N8        30.46S WCI  16          
DAYTON           N/A     21  16  81 N7        30.47S WCI  12          
WILMINGTON       N/A     23  16  74 N7        30.46R WCI  15          
HUNTINGTON       N/A     31  22  69 N7        30.45R WCI  24          
CHARLESTON     MOCLDY    32  26  78 NW3       30.43R                  
PINEVILLE*     CLOUDY    34  31  90 MISG      30.42S                  
BECKLEY        CLOUDY    29  26  89 N6        30.33R WCI  23          
BLUEFIELD      CLOUDY    29  27  92 N5        30.31F WCI  24          
LOGAN CO APT*  CLOUDY    32  28  86 CALM      30.39S                  

400 AM EST WED NOV 14 2018
...EASTERN KENTUCKY...
  
CITY           SKY/WX    TMP DP  RH WIND       PRES   REMARKS
JACKSON          N/A     31  28  89 VRB3      30.40R                  
LONDON         CLOUDY    34  31  88 NE6       30.39S WCI  29          
SOMERSET*      CLOUDY    32  28  86 NE10      30.42F WCI  24          
MONTICELLO*    CLOUDY    34  30  85 N10G20    30.41R WCI  26          
WILLIAMSBURG*  CLOUDY    34  32  93 NE9       30.38S WCI  26          
MIDDLESBORO*   CLOUDY    37  35  92 NE3       30.38R                  
HARLAN APT*    CLOUDY    33  31  90 NE5       30.36S WCI  29          
PIKE CO APT*   CLOUDY    32  32 100 N6        30.39S WCI  26          
BIG SANDY APT* CLOUDY    32  30  94 N6        30.42R WCI  26          
MOREHEAD APT*    N/A     30  23  74 N6        30.46S WCI  24          


Kentucky Weather Synopsis:

Wed Nov 14 04:42:14 EST 2018


Kentucky State Forecast

Western KY:
Central KY:
Eastern KY:

Specific and detailed farm-by-farm weather forecast information is available in your Point Ag Forecast. New County Ag Weather Page, Current Conditions:Kentucky, U.S.



Current Watches/Warnings/Statements: Click here.

Current weather around the greater Bluegrass region:

400 AM EST WED NOV 14 2018 ...CENTRAL KENTUCKY... CITY SKY/WX TMP DP RH WIND PRES REMARKS MT STERLING* N/A 30 27 86 NE5 30.46S WCI 25 FLEMING/MASON* N/A 28 23 82 NE7 30.48S WCI 20 DANVILLE* N/A 30 27 86 NE7 30.44R WCI 23 LEXINGTON N/A 29 23 78 NE10 30.45F WCI 20 FRANKFORT N/A 29 22 75 NE8 30.46R WCI 21 LOUISVILLE CLOUDY 27 19 72 N8 30.49S WCI 19 LEBANON* N/A 28 27 93 NE5 30.45R WCI 23 GLASGOW* N/A 31 27 83 NE8 30.43R WCI 24 BOWLING GREEN N/A 30 23 75 N3 30.46R


7-Day NWS Hazardous Weather Outlook for central Kentucky:

From the UK ag weather center. Updated: 9 PM Tue Nov 13 2018 this hazardous weather outlook is for portions of south central indiana and central kentucky. .day one...tonight. no hazardous weather is expected at this time. .days two through seven...wednesday through monday. the threat for a wintry mix of rain, freezing rain, sleet and snow is increasing across the outlook area late wednesday night and into thursday morning. this could potentially result in negative travel impacts for the thursday morning commute. stay tuned to later forecasts. .spotter information statement... spotter activation is not anticipated. This hazardous forecast is provided by The National Weather Service.


The Short-Term Forecast for Kentucky:

Western KY ...WINTER STORM WATCH IN EFFECT FROM WEDNESDAY AFTERNOON THROUGH .TONIGHT...Mostly clear. Lows in the mid 20s. North winds around 10 mph. Central KY ...WINTER WEATHER ADVISORY IN EFFECT FROM 7 PM THIS EVENING TO .TODAY...Cloudy. A 20 percent chance of light snow in the afternoon. Highs in the mid 30s. Northeast winds 10 to 15 mph. Eastern KY .TODAY...Mostly cloudy. A 20 percent chance of rain or snow late. Highs in the upper 30s. Light winds becoming northeast around 10 mph in the afternoon.

7-day Forecast for central Kentucky:

Wed Nov 14 03:32:12 EST 2018 Fayette- Including the city of Lexington 332 AM EST Wed Nov 14 2018 ...WINTER WEATHER ADVISORY IN EFFECT FROM 7 PM THIS EVENING TO 6 AM EST THURSDAY... .TODAY...Cloudy. A 20 percent chance of light snow in the afternoon. Highs in the mid 30s. Northeast winds 10 to 15 mph. .TONIGHT...Freezing rain possibly mixed with rain, snow and sleet. No snow and sleet accumulation. Ice accumulation of up to one quarter of an inch. Lows in the lower 30s. Northeast winds 10 to 20 mph. Chance of precipitation near 100 percent. .THURSDAY...Rain. Highs around 40. Southeast winds 5 to 10 mph. Chance of rain near 100 percent. .THURSDAY NIGHT...Cloudy with chance of rain possibly mixed with freezing rain and snow. Lows in the lower 30s. West winds 10 to 15 mph. Chance of precipitation 50 percent. .FRIDAY...Mostly sunny. Highs in the mid 40s. Southwest winds 10 to 15 mph. .FRIDAY NIGHT...Mostly clear. Lows in the lower 30s. .SATURDAY...Partly cloudy. Highs in the lower 50s. .SATURDAY NIGHT...Partly cloudy. Lows in the mid 30s. .SUNDAY...Mostly cloudy. Highs in the upper 40s. .SUNDAY NIGHT...Mostly cloudy with a 40 percent chance of rain possibly mixed with snow. Lows in the lower 30s. .MONDAY...Partly cloudy with a 40 percent chance of rain and snow. Highs in the mid 40s. .MONDAY NIGHT...Mostly clear. Lows in the upper 20s. .TUESDAY...Mostly sunny. Highs in the upper 40s.
Click here for the 60 hr. forecast maps, or loop .

Over The Next 48 Hours in Kentucky

(Click any thumbnail below to view full-sized image) or select State or Conus below
NWS West KY:
NWS Central KY:
NWS East KY:
NWS National:

NWS Weather Story

NWS West:
NWS Central:
NWS East:

Temperature

Next 12 Hrs
Next 24 Hrs
Next 36 Hrs
Next 48 Hrs

Weather Conditions

Next 12 Hrs
Next 24 Hrs
Next 36 Hrs
Next 48 Hrs

Apparent Temperature

Next 12 Hrs
Next 24 Hrs
Next 36 Hrs
Next 48 Hrs

Probability of Precipitation

Next 12 Hrs
Next 24 Hrs
Next 36 Hrs
Next 48 Hrs

Winds

Next 12 Hrs
Next 24 Hrs
Next 36 Hrs
Next 48 Hrs

Sky Condition

Next 12 Hrs
Next 24 Hrs
Next 36 Hrs
Next 48 Hrs

Forecast Maps

Now
Next 12 Hrs
Next 24 Hrs
Next 36 Hrs
Next 72 Hrs

Place Mouse Over Text to Pause....